Weather History for Scappoose, OR

Change the Weather History Date:

Friday, September 27, 2013

  Actual Average Record
Temperature  
Mean Temperature 48 °F -  
Max Temperature 56 °F - 96 °F (2003)
Min Temperature 43 °F - 33 °F (1999)
Degree Days  
Heating Degree Days 15    
Month to date heating degree days 97  
Since 1 July heating degree days 121  
Cooling Degree Days 0    
Month to date cooling degree days 72  
Year to date cooling degree days 396  
Moisture  
Dew Point 47 °F    
Average Humidity 92    
Maximum Humidity 100    
Minimum Humidity 83    
Precipitation  
Precipitation 0.22 in - 0.22 in (2013)
Month to date precipitation 3.60  
Year to date precipitation 18.14  
Sea Level Pressure  
Sea Level Pressure 30.08 in    
Wind  
Wind Speed 4 mph (SSE)    
Max Wind Speed 13 mph    
Max Gust Speed 20 mph    
Visibility 6 miles    
Events Fog , Rain    
T = Trace of Precipitation, MM = Missing Value Source: NWS Daily Summary

Daily Weather History Graph

Daily Weather History Graph

Search for Another Location

Airport:

Trip Planner

Search our weather history database for the weather conditions in past years. The results will help you decide how hot, cold, wet, or windy it might be!

Date:

Astronomy

Sep. 27, 2013 Rise Set
Actual Time 7:05 AM PDT 6:58 PM PDT
Civil Twilight 6:35 AM PDT 7:28 PM PDT
Nautical Twilight 6:00 AM PDT 8:02 PM PDT
Astronomical Twilight 5:25 AM PDT 8:38 PM PDT
Moon No Moon Rise 2:57 PM PDT (9/27)
Length of Visible Light 12h 52m
Length of Day
11h 53m
Last Quarter, 44% of the Moon is Illuminated
Sep 27
Last Quarter
Oct 4
New
Oct 11
First Quarter
Oct 18
Full
Oct 26
Last Quarter

Hourly Weather History & Observations

Time (PDT) Temp. Windchill Dew Point Humidity Pressure Visibility Wind Dir Wind Speed Gust Speed Precip Events Conditions
12:13 AM 46.4 °F - 44.6 °F 93% 30.17 in 1.8 mi Calm Calm - N/A   Clear
12:23 AM 44.6 °F - 42.8 °F 93% 30.16 in 3.0 mi Calm Calm - N/A   Clear
12:53 AM 45.0 °F - 44.1 °F 97% 30.17 in 10.0 mi Calm Calm - N/A   Partly Cloudy
1:45 AM 44.6 °F - 42.8 °F 93% 30.17 in 2.0 mi Calm Calm - N/A   Clear
1:53 AM 44.1 °F 42.5 °F 43.0 °F 96% 30.17 in 10.0 mi West 3.5 mph - N/A   Partly Cloudy
2:15 AM 44.6 °F - 42.8 °F 93% 30.17 in 10.0 mi Calm Calm - N/A   Mostly Cloudy
2:41 AM 44.6 °F - 42.8 °F 93% 30.17 in 10.0 mi Calm Calm - N/A   Partly Cloudy
2:49 AM 42.8 °F - 42.8 °F 100% 30.16 in 1.8 mi Calm Calm - N/A   Scattered Clouds
2:53 AM 43.0 °F - 42.1 °F 97% 30.16 in 1.0 mi Calm Calm - N/A   Mostly Cloudy
3:01 AM 44.6 °F - 42.8 °F 93% 30.16 in 4.0 mi Calm Calm - N/A   Mostly Cloudy
3:53 AM 45.0 °F - 43.0 °F 93% 30.16 in 10.0 mi Calm Calm - N/A   Overcast
4:07 AM 44.6 °F - 44.6 °F 100% 30.15 in 1.8 mi Calm Calm - N/A   Overcast
4:22 AM 44.6 °F - 44.6 °F 100% 30.15 in 0.5 mi Calm Calm - N/A Fog Fog
4:35 AM 44.6 °F - 44.6 °F 100% 30.14 in 2.0 mi Calm Calm - N/A   Overcast
4:44 AM 44.6 °F - 44.6 °F 100% 30.14 in 0.8 mi Calm Calm - N/A   Mist
4:53 AM 45.0 °F - 44.1 °F 97% 30.14 in 0.2 mi Calm Calm - N/A Fog Fog
5:53 AM 46.0 °F - 44.1 °F 93% 30.14 in 0.8 mi Calm Calm - N/A   Overcast
6:00 AM 46.4 °F - 44.6 °F 93% 30.14 in 2.0 mi Calm Calm - N/A   Overcast
6:17 AM 46.4 °F - 44.6 °F 93% 30.13 in 1.0 mi Calm Calm - N/A   Overcast
6:32 AM 46.4 °F - 44.6 °F 93% 30.13 in 3.0 mi Calm Calm - N/A   Overcast
6:53 AM 46.0 °F - 45.0 °F 96% 30.13 in 4.0 mi Calm Calm - N/A   Overcast
7:26 AM 46.4 °F - 44.6 °F 93% 30.13 in 4.0 mi Calm Calm - N/A   Overcast
7:53 AM 46.9 °F - 46.0 °F 97% 30.13 in 7.0 mi Calm Calm - N/A   Overcast
8:53 AM 50.0 °F - 48.0 °F 93% 30.12 in 10.0 mi Calm Calm - 0.01 in   Overcast
9:53 AM 52.0 °F - 48.9 °F 89% 30.11 in 4.0 mi SSE 6.9 mph - 0.03 in Rain Light Rain
10:53 AM 53.1 °F - 50.0 °F 89% 30.09 in 10.0 mi South 6.9 mph - 0.05 in   Overcast
11:03 AM 53.6 °F - 48.2 °F 82% 30.08 in 10.0 mi SSE 8.1 mph - N/A   Overcast
11:45 AM 53.6 °F - 50.0 °F 88% 30.07 in 10.0 mi South 6.9 mph - N/A   Overcast
11:53 AM 54.0 °F - 50.0 °F 86% 30.06 in 10.0 mi South 8.1 mph 17.3 mph N/A   Overcast
12:53 PM 55.9 °F - 50.0 °F 80% 30.04 in 10.0 mi South 9.2 mph - 0.00 in   Overcast
1:53 PM 55.9 °F - 51.1 °F 84% 30.02 in 10.0 mi South 6.9 mph - 0.00 in Rain Light Rain
2:53 PM 55.0 °F - 51.1 °F 86% 30.01 in 6.0 mi South 9.2 mph - 0.02 in Rain Light Rain
3:53 PM 55.0 °F - 51.1 °F 86% 30.01 in 10.0 mi South 5.8 mph - 0.01 in Rain Light Rain
4:53 PM 55.9 °F - 51.1 °F 84% 30.00 in 10.0 mi South 3.5 mph - 0.00 in   Overcast
5:34 PM 55.4 °F - 51.8 °F 88% 30.00 in 4.0 mi SE 5.8 mph - 0.02 in Rain Light Rain
5:53 PM 55.0 °F - 52.0 °F 89% 30.00 in 8.0 mi Variable 3.5 mph - 0.03 in Rain Light Rain
6:53 PM 54.0 °F - 52.0 °F 93% 29.99 in 10.0 mi SSE 5.8 mph - 0.00 in   Overcast
7:13 PM 53.6 °F - 51.8 °F 94% 29.98 in 10.0 mi SSE 5.8 mph - 0.00 in Rain Light Rain
7:53 PM 54.0 °F - 52.0 °F 93% 29.97 in 10.0 mi SSE 8.1 mph - 0.01 in Rain Light Rain
8:53 PM 54.0 °F - 52.0 °F 93% 29.96 in 10.0 mi South 5.8 mph - 0.00 in   Overcast
9:01 PM 53.6 °F - 51.8 °F 94% 29.95 in 10.0 mi SSE 5.8 mph - N/A   Overcast
9:53 PM 55.0 °F - 52.0 °F 89% 29.94 in 5.0 mi SSE 5.8 mph - 0.01 in Rain Light Rain
10:04 PM 53.6 °F - 51.8 °F 94% 29.94 in 6.0 mi SSE 5.8 mph - 0.01 in Rain Light Rain
10:53 PM 55.0 °F - 52.0 °F 89% 29.93 in 10.0 mi SSE 5.8 mph - 0.02 in Rain Light Rain
11:21 PM 55.4 °F - 51.8 °F 88% 29.92 in 10.0 mi SE 8.1 mph - 0.01 in Rain Light Rain
11:53 PM 55.0 °F - 52.0 °F 89% 29.91 in 10.0 mi SSE 4.6 mph - 0.02 in Rain Light Rain